Regional Weather Roundup
Issued by NWS

Home | Current Version | Previous Version | Graphics & Text | Print | Product List | Glossary On
Versions: 1 2 3 4 5 6 7 8 9 10 11 12 13 14 15 16 17 18 19 20 21 22 23 24 25 26 27 28 29 30 31 32 33 34 35 36 37 38 39 40 41 42 43 44 45 46 47 48 49 50
000
ASUS43 KLSX 010307
RWRMO

WEATHER SUMMARY FOR MISSOURI
NATIONAL WEATHER SERVICE SPRINGFIELD MO
1000 PM CDT TUE JUN 30 2015

NOTE: "FAIR" INDICATES FEW OR NO CLOUDS BELOW 12,000 FEET WITH NO
       SIGNIFICANT WEATHER AND/OR OBSTRUCTIONS TO VISIBILITY.
       CURRENT SKY AND/OR WEATHER CONDITIONS ARE NOT AVAILABLE FOR
       CHILLICOTHE AND FARMINGTON.

MOZ001>031-035>038-043-044-053-054-010400-
...NORTHERN AND WESTERN MISSOURI...

CITY           SKY/WX    TMP DP  RH WIND       PRES   REMARKS
KANSAS CTY INT CLOUDY    77  68  73 SE8       29.89R
KANSAS C DTWN  MOCLDY    80  66  62 E6        29.87S
LEE`S SUMMIT   MOCLDY    78  67  68 SE6       29.90S
ST JOSEPH      CLOUDY    78  65  63 E5        29.89R
CHILLICOTHE      N/A     73  70  90 S3        29.89S
KIRKSVILLE     MOCLDY    71  69  93 CALM      29.91R

$$
MOZ066>068-077>081-088>096-101>105-010400-
...SOUTHWEST MISSOURI...

CITY           SKY/WX    TMP DP  RH WIND       PRES   REMARKS
SPRINGFIELD    PTCLDY    76  68  76 S3        29.94R
JOPLIN         CLEAR     80  72  76 SE7       29.92R

$$
MOZ032>034-039>042-045>050-055>058-069>072-010400-
...CENTRAL MISSOURI...

CITY           SKY/WX    TMP DP  RH WIND       PRES   REMARKS
COLUMBIA       CLOUDY    76  71  85 CALM      29.91R
JEFFERSON CITY MOCLDY    76  70  82 CALM      29.89R
ROLLA          MOCLDY    72  70  93 SW6       29.92R
SEDALIA        PTCLDY    76  69  79 S5        29.92R
WHITEMAN AFB   MOCLDY    76  71  84 E2        29.90R
WARRENSBURG    PTCLDY    73  68  83 CALM      29.90R
OSAGE BEACH    MOCLDY    73  70  88 CALM      29.93R

$$
MOZ051-052-059>065-010400-
...EAST CENTRAL MISSOURI...

CITY           SKY/WX    TMP DP  RH WIND       PRES   REMARKS
ST LOUIS INTL  MOCLDY    78  67  68 CALM      29.90R
SPIRIT OF STL  MOCLDY    73  71  93 CALM      29.89R
ST CHARLES     MOCLDY    75  71  87 CALM      29.88R

$$
MOZ072>076-082>087-097>100-106>115-010400-
...SOUTH CENTRAL AND SOUTHEAST MISSOURI...

CITY           SKY/WX    TMP DP  RH WIND       PRES   REMARKS
CAPE GIRARDEAU MOCLDY    74  71  91 S3        29.91R
FARMINGTON     PTCLDY    72  70  94 CALM      29.97R
POPLAR BLUFF   MOCLDY    78  72  81 SW3       29.91R
WEST PLAINS    CLEAR     72  68  87 CALM      29.98R

$$


USA.gov is the U.S. government's official web portal to all federal, state and local government web resources and services.